Tracking 28888 objects as of 22-May-2024
HD Live streaming from Space Station
objects crossing your sky now

STARLINK-1683

Track STARLINK-1683 now!
10-day predictions
STARLINK-1683 is classified as:


NORAD ID: 46578
Int'l Code: 2020-070AY
Perigee: 553.2 km
Apogee: 555.5 km
Inclination: 53.1 °
Period: 95.6 minutes
Semi major axis: 6925 km
RCS: Unknown
Launch date: October 6, 2020
Source: United States (US)
Launch site: AIR FORCE EASTERN TEST RANGE (AFETR)
Your satellite tracking list
Your tracking list is empty




NASA's NSSDC Master Catalog

Two Line Element Set (TLE):
1 46578U 20070AY  24143.16915200  .00018006  00000-0  12245-2 0  9998
2 46578  53.0541 213.9014 0001616  89.1881 270.9293 15.06402417200676
Source of the keplerian elements: AFSPC